Vorticity
6 6 6 6 6 6 6 7 7 7 8 8 9 9 10 10 9 9 8 8 7 6 5 4 4 4 7 8 8 9 7 6 4 4 6 8 9 7 8 8 5 6 8 7 5 2 4 5 5 7 6 6 4 3 6 3 2 -0 2 14 26 35 31 17 8 5 0 2 6 7 6 7 5 4 7 7 7 7 7 6 5 7 8 5 2 1 4 5
5 5 5 5 4 5 5 6 6 6 7 7 7 8 10 10 11 10 10 9 9 9 8 8 6 5 5 6 7 8 8 8 6 4 6 8 8 7 8 7 4 7 6 7 9 4 3 5 6 7 7 7 5 5 4 4 3 -2 4 15 22 24 16 9 2 0 7 6 6 9 7 7 5 4 7 7 8 6 6 8 4 7 9 4 4 4 4 5
4 4 4 3 3 4 5 5 5 5 6 6 6 7 8 8 8 8 9 9 9 9 9 9 8 7 6 5 6 6 8 8 6 8 8 6 7 7 8 6 5 7 5 6 10 7 2 4 6 7 9 7 5 6 3 3 4 -1 6 18 16 7 6 7 1 3 9 2 4 11 8 9 6 4 6 6 7 6 6 6 4 8 8 5 6 5 5 5
3 3 3 3 3 4 5 5 6 5 6 7 7 8 8 7 7 6 7 7 8 9 9 10 9 9 7 6 6 5 8 6 7 13 8 5 6 7 7 5 5 6 5 5 9 9 2 2 6 7 8 7 4 6 5 1 4 2 2 19 18 3 5 7 -1 4 8 0 7 11 6 11 10 4 7 8 7 6 5 3 3 6 6 8 7 4 6 5
3 3 3 4 4 5 6 6 6 6 6 7 8 9 9 8 7 6 6 6 8 8 9 10 10 11 8 8 6 6 8 4 11 15 6 7 7 6 7 5 6 5 6 5 8 10 4 2 4 7 8 7 4 4 6 1 4 2 -2 19 21 2 9 14 -0 -0 7 5 8 11 5 8 9 6 9 8 6 5 3 5 6 6 7 10 8 4 6 4
4 4 4 4 5 5 6 6 6 7 7 7 8 8 8 8 6 6 6 6 8 9 10 10 10 11 10 9 6 7 9 1 9 13 7 11 7 5 7 5 6 6 6 6 7 9 5 4 4 6 6 6 4 3 7 2 2 1 -3 21 23 6 17 20 7 6 9 5 6 10 7 7 6 7 12 4 3 6 5 7 6 6 8 7 6 5 5 3
5 4 5 5 5 5 6 6 6 7 8 8 8 7 6 6 6 6 7 8 10 10 11 10 11 12 11 11 8 8 8 2 8 8 4 11 8 5 7 6 6 7 8 6 6 9 6 4 6 5 4 6 3 2 7 -2 3 7 -2 16 21 9 18 14 9 15 6 -3 5 10 6 8 6 6 11 3 1 8 7 9 6 3 6 6 6 6 5 5
5 5 5 5 5 6 6 6 7 8 8 8 7 6 5 6 7 8 9 11 12 12 11 11 11 11 12 12 10 9 7 4 11 10 3 8 9 5 6 6 7 7 8 7 4 8 6 2 6 6 4 5 3 4 3 -6 10 14 -5 12 22 8 11 7 3 13 5 -6 1 9 7 7 8 9 8 1 5 9 6 9 7 2 4 5 6 6 7 7
5 5 6 6 6 6 6 7 8 8 7 7 6 6 6 7 8 9 11 12 12 13 12 12 12 11 13 13 12 10 5 5 11 11 5 7 9 7 6 5 6 7 7 7 4 6 6 2 4 5 4 4 1 5 3 -2 11 10 -7 7 21 10 10 10 3 7 8 -0 -1 5 8 6 6 11 7 2 7 9 7 8 7 3 3 5 6 7 8 7
6 6 6 6 6 6 7 8 7 7 6 6 6 6 7 8 10 11 12 13 13 14 13 14 13 13 14 14 14 10 6 11 12 9 8 9 9 7 7 5 6 7 7 8 5 5 6 3 4 5 4 3 2 4 7 7 5 5 2 3 13 15 16 13 1 5 11 1 -3 1 5 6 7 10 8 4 7 9 7 7 7 4 4 6 6 6 7 8
6 6 7 6 6 7 7 7 7 6 5 5 6 8 9 10 11 13 13 14 15 15 15 15 16 16 15 15 16 12 11 14 13 11 10 9 10 8 7 7 5 6 8 8 5 5 6 4 4 4 3 2 4 4 7 10 3 2 7 1 8 16 15 11 1 7 13 -1 -7 1 5 5 6 9 7 5 8 9 8 9 8 5 5 5 5 6 6 7
7 6 7 7 7 8 7 7 6 5 6 6 8 9 11 12 13 14 15 16 16 17 17 17 17 17 17 16 16 17 17 14 12 13 11 9 11 9 7 7 6 6 7 8 7 5 5 4 4 3 3 2 3 3 6 12 6 3 7 1 7 15 14 17 13 7 2 -4 -6 1 7 5 6 10 7 6 8 7 8 11 8 4 6 5 4 6 6 6
7 7 7 8 8 7 6 6 5 5 7 8 10 11 13 14 14 16 16 16 16 16 16 15 16 16 16 16 16 21 20 15 13 12 10 10 10 9 8 6 6 6 6 7 8 5 5 4 5 3 1 4 3 0 4 9 6 4 4 1 4 12 15 17 11 1 1 5 -0 -1 4 2 5 11 8 8 9 7 6 8 9 7 8 6 4 6 7 5
7 7 8 8 7 6 5 5 5 6 9 10 12 13 14 15 16 16 16 16 15 14 14 12 12 13 14 15 16 19 20 19 18 14 12 11 10 9 8 6 5 6 7 8 7 6 6 4 6 4 1 5 4 -1 2 6 8 5 -1 0 4 3 11 19 7 -1 10 13 5 5 6 2 4 10 11 11 11 7 4 5 8 9 8 6 4 6 7 6
7 7 8 8 6 6 5 5 6 8 11 12 14 14 16 17 17 16 15 15 14 14 15 14 13 11 11 12 13 16 18 21 23 19 14 12 12 9 9 8 6 6 6 7 8 8 7 5 6 3 -0 6 5 2 4 3 6 7 -1 -1 8 3 3 19 18 9 13 12 9 4 -0 5 5 5 13 13 10 7 3 4 6 9 8 6 5 6 6 6
8 8 7 7 5 5 5 6 9 11 13 15 15 16 16 16 16 16 14 14 14 15 17 18 19 15 12 11 10 11 12 18 25 24 18 14 13 11 10 8 6 7 7 7 8 8 7 6 6 2 -0 3 3 3 5 4 4 9 4 -10 -0 15 8 14 23 17 11 8 8 -2 -5 8 3 1 15 12 8 8 5 5 5 8 8 5 6 6 5 7
9 7 7 6 5 6 6 8 11 12 15 16 15 15 15 16 16 15 13 13 14 15 15 16 20 19 16 13 9 7 7 12 21 26 22 15 14 13 10 7 7 7 7 6 7 9 8 7 5 3 2 2 2 3 1 5 6 5 10 -4 -6 11 5 10 23 16 14 12 7 -0 -0 8 0 1 13 10 7 8 7 6 4 7 7 5 7 6 6 8
9 7 7 6 5 6 7 10 13 15 17 16 14 14 14 15 15 13 12 13 14 12 10 9 15 19 17 16 14 10 9 11 16 24 25 18 15 15 11 8 8 7 8 8 7 8 9 8 6 2 4 3 2 5 1 3 7 2 6 6 3 7 2 13 21 13 19 17 10 6 -1 -1 1 4 8 8 9 5 6 8 4 6 5 5 8 6 7 8
9 7 6 5 6 7 10 12 14 16 17 14 13 11 12 14 14 13 12 14 16 15 14 12 13 15 15 16 15 13 10 9 10 18 25 21 15 15 13 9 7 8 8 8 7 7 8 7 7 3 3 4 0 5 5 2 8 5 1 3 5 6 5 14 17 14 21 16 16 16 0 -4 1 2 6 9 8 4 6 8 5 6 5 5 7 6 8 7
9 7 5 6 7 9 12 14 15 17 16 12 11 10 12 13 12 12 14 17 19 18 19 19 14 11 13 16 18 16 11 7 6 14 24 22 16 15 14 10 7 9 8 8 7 6 8 8 8 5 1 4 2 2 4 4 8 8 3 1 -1 -1 1 8 15 17 15 12 18 12 -3 3 5 -0 5 7 8 7 5 7 7 8 5 3 7 6 6 8
9 6 6 7 8 11 13 14 16 16 13 10 10 11 12 13 13 14 15 18 20 21 23 23 18 11 12 17 20 16 8 8 8 13 23 23 17 16 16 12 9 10 9 9 9 6 8 9 9 8 1 3 4 2 3 2 4 8 9 8 3 1 3 6 16 21 13 9 17 15 8 12 5 -4 2 5 8 9 5 6 6 6 6 4 7 6 4 7
8 6 8 8 10 13 13 15 16 14 12 10 10 12 12 13 14 14 16 20 24 25 24 23 19 12 12 13 16 15 8 9 11 15 22 21 17 17 16 14 10 11 10 8 9 8 9 8 8 8 4 4 4 4 5 1 3 4 3 10 7 1 8 11 15 24 25 16 10 13 11 2 -7 -5 1 2 6 9 7 7 6 5 7 7 6 4 6 8
7 7 8 9 13 14 13 16 15 13 11 9 12 12 11 14 16 18 21 22 24 24 21 22 18 13 14 14 13 13 8 8 11 17 22 18 17 18 15 14 11 10 11 9 10 9 9 10 9 8 7 6 1 2 8 6 11 8 -1 7 4 -8 0 12 12 14 24 24 14 11 11 2 -2 2 2 -0 5 10 9 7 7 6 5 8 8 3 6 7
8 8 8 11 14 13 14 15 12 12 10 10 13 10 14 17 19 24 24 22 24 24 21 20 18 15 14 15 15 13 11 11 12 18 20 17 19 18 15 15 12 11 10 9 9 10 9 7 9 11 8 7 -0 -3 8 12 16 15 5 7 9 -1 -5 4 8 4 11 24 21 13 14 12 4 4 6 6 8 8 8 6 5 7 5 5 8 6 7 7
8 8 10 13 13 13 14 12 12 12 9 12 11 11 19 20 25 28 21 23 22 14 18 17 17 21 17 16 17 13 15 17 14 19 21 19 19 17 15 14 12 10 11 11 9 10 10 7 10 14 8 6 1 -12 -7 11 16 11 7 5 11 11 -2 -1 8 3 4 14 16 10 14 18 12 17 23 14 11 8 4 7 6 6 7 6 7 8 10 9
8 9 12 13 13 13 12 11 13 11 10 12 9 16 23 22 28 19 9 20 6 -8 13 18 11 17 15 17 20 16 21 24 18 19 22 23 19 16 15 16 15 10 7 12 15 11 9 8 5 10 16 8 1 -4 -10 0 8 4 11 10 9 12 -1 -2 11 10 6 6 12 14 21 33 25 22 24 10 10 10 -2 2 7 5 8 8 6 7 9 9
9 11 13 14 14 12 11 12 12 11 11 10 13 22 23 20 20 9 11 20 -2 -9 14 17 12 14 11 18 22 15 14 20 21 19 21 25 22 18 14 11 13 12 7 7 16 16 6 10 7 2 20 14 3 16 3 -8 3 10 20 11 2 13 4 -2 9 11 9 5 7 9 22 52 38 3 4 5 4 6 -4 -1 8 7 8 9 6 6 9 8
10 11 14 14 13 11 10 12 13 13 10 10 17 18 13 12 7 6 14 3 -5 12 14 4 12 16 10 17 23 16 4 5 20 23 20 21 22 20 15 13 9 8 15 7 10 19 -1 5 24 6 9 14 9 22 9 -6 4 10 20 10 -0 16 8 -2 5 6 10 7 6 8 15 46 41 -1 -6 4 2 6 3 1 7 7 6 9 7 5 8 10
10 12 14 13 12 10 9 13 14 12 9 12 17 11 8 11 6 14 20 3 3 18 8 5 20 20 17 19 19 21 13 3 14 23 21 18 21 16 7 15 12 -0 14 14 5 18 -1 -5 24 13 1 11 12 13 1 -0 10 6 12 10 6 22 16 7 7 3 12 11 4 10 7 15 24 15 16 14 4 6 4 -0 7 11 7 8 8 5 8 10
11 13 14 13 12 9 9 14 15 11 10 12 14 10 7 7 7 13 13 2 -3 -0 9 20 19 14 19 21 16 17 17 11 9 17 22 18 19 18 5 12 18 -3 6 21 4 7 13 11 25 16 -2 13 33 24 -6 -6 15 8 3 2 -1 10 14 10 8 2 10 11 0 7 12 7 6 15 37 35 9 -3 -1 1 7 11 8 6 6 8 9 8
11 14 14 13 11 8 11 15 14 11 10 11 12 10 6 7 11 7 3 11 11 8 18 15 6 12 15 14 18 14 10 13 12 15 25 21 15 19 12 13 26 7 -1 18 0 -15 -0 8 22 21 -2 3 26 19 -7 -4 15 13 14 12 -6 -5 3 4 9 9 8 8 4 7 13 14 5 3 31 44 16 -3 -1 2 6 9 8 8 7 8 7 6
13 14 13 14 10 9 11 14 16 11 8 11 8 9 13 11 11 6 6 21 22 11 9 4 8 19 11 9 19 17 9 8 10 15 25 25 19 21 11 5 29 24 6 17 7 -10 -7 -10 11 38 21 2 -7 -17 -8 11 6 -0 23 28 -1 -5 3 -2 5 14 11 7 5 6 1 9 16 4 17 41 20 -1 1 -1 1 6 8 10 8 7 7 5
13 13 13 13 9 10 10 14 18 10 8 11 4 6 8 2 8 8 2 9 16 14 11 13 18 13 7 8 12 20 18 5 6 18 25 21 16 24 12 -6 15 23 11 23 17 1 1 -9 3 33 31 14 -7 -26 -9 24 15 -9 4 15 -2 -3 1 2 14 17 12 7 3 7 -1 0 15 3 18 58 34 -0 3 2 -2 2 5 9 8 8 8 5
13 12 14 13 10 11 9 15 19 10 9 9 5 8 1 1 14 7 0 7 17 19 8 5 9 2 7 10 5 17 15 -0 8 15 17 18 13 23 17 -5 8 15 5 24 27 4 1 4 7 20 31 28 5 -22 -28 2 32 24 11 5 -4 -3 -7 -3 19 18 10 9 3 12 10 -2 4 2 27 69 42 3 7 5 0 1 1 6 7 7 8 6
13 13 14 13 11 10 8 16 18 10 10 5 8 14 5 10 10 -1 12 11 -6 2 7 13 14 -5 4 16 7 11 3 -1 23 17 7 17 10 11 19 8 12 12 -4 12 28 10 0 9 5 2 26 37 13 -10 -27 -26 9 38 36 14 -5 -4 -11 -19 -3 5 8 11 0 5 15 7 4 4 22 46 33 17 19 14 11 5 -4 2 7 8 8 7
13 13 14 13 13 10 9 16 16 12 12 3 3 10 8 13 6 0 24 15 -6 8 12 20 23 -3 -1 13 8 10 1 1 28 20 6 17 8 3 17 17 18 15 -2 5 24 15 3 10 11 1 14 34 20 4 -1 -15 -16 9 30 28 14 9 5 -5 -3 2 5 10 7 4 9 12 12 6 5 13 17 21 19 13 15 11 2 2 5 7 7 6
13 12 13 14 12 11 10 15 17 14 10 3 3 7 7 12 5 -4 10 14 16 21 4 4 23 15 7 10 15 19 6 8 27 16 4 15 14 6 10 16 23 14 2 16 28 18 11 11 15 13 9 26 32 11 6 5 -9 -9 6 19 21 12 12 9 0 4 7 4 8 11 10 14 14 9 5 2 4 13 16 15 22 25 19 13 5 5 7 5
13 13 13 14 13 13 12 13 17 15 8 5 9 14 10 8 3 -7 5 24 19 3 -2 6 17 14 6 13 21 7 -5 11 21 8 5 15 17 7 -1 13 28 6 -6 27 32 6 7 6 5 19 15 23 40 17 2 11 3 -6 -8 -1 10 6 10 15 -3 -6 5 2 -0 3 10 17 7 0 12 14 5 6 7 12 34 42 26 15 9 2 5 5
13 13 13 14 13 13 11 12 17 15 8 1 2 10 8 7 11 6 12 28 18 -0 8 20 17 6 2 18 19 -4 4 26 17 8 8 3 7 8 -0 7 25 17 4 21 17 -12 -7 4 4 18 16 19 42 28 6 10 7 1 -8 -6 8 4 6 21 10 -6 -3 5 10 5 4 15 13 3 5 8 11 17 5 -0 38 65 37 10 6 3 5 6
12 15 16 14 12 11 11 14 16 12 7 4 8 18 16 7 6 9 12 14 12 8 5 7 17 13 5 16 13 2 19 25 11 19 15 -5 -2 12 17 8 5 29 38 18 -1 -17 -15 0 4 12 15 14 30 32 15 9 11 11 -1 -9 1 2 5 17 12 2 -2 -3 6 10 4 7 15 14 7 1 8 22 16 -1 22 60 46 9 -4 -2 3 6
12 16 14 11 13 14 12 14 15 9 8 10 8 11 19 13 1 12 25 15 10 16 7 -2 7 9 3 7 8 10 17 12 9 19 15 9 5 0 16 10 -17 13 47 23 1 -12 -20 -3 5 7 21 21 23 38 29 7 10 23 16 2 -3 -3 7 15 10 8 7 -3 -2 11 14 7 7 11 13 12 5 7 19 11 1 20 34 21 9 7 6 4
13 14 8 7 16 18 13 14 13 6 8 13 6 2 11 8 -2 11 20 5 3 13 15 13 8 4 8 8 8 14 14 14 17 11 5 15 18 6 13 18 3 16 31 19 15 1 -17 4 17 2 8 16 18 41 42 8 -2 16 24 22 13 1 2 8 11 11 5 -1 4 13 12 5 6 11 11 15 13 6 12 17 5 1 12 20 21 24 25 18
14 14 9 8 14 16 12 13 14 8 6 10 12 18 20 -1 -16 1 10 5 10 10 12 22 8 -2 13 11 1 8 12 11 11 11 9 5 9 12 10 23 36 29 16 14 25 15 -15 -10 11 3 2 11 9 26 42 16 -13 -11 6 18 16 9 7 7 12 14 6 -4 -2 7 9 4 5 11 10 11 16 13 7 9 10 1 -3 3 9 17 28 31
15 14 9 8 12 14 12 13 14 9 6 4 -2 4 15 4 -10 -1 8 10 14 6 7 24 12 -4 9 9 -3 4 11 4 1 12 17 3 5 14 12 23 24 0 2 19 22 20 1 -15 -10 -11 -4 15 12 11 34 36 9 -11 -6 12 18 10 6 11 16 14 8 1 -4 -3 4 8 8 8 6 6 11 15 12 12 14 6 -3 -4 -2 4 18 31
16 14 11 14 17 14 10 12 12 7 10 15 8 5 14 19 11 6 7 10 17 9 0 15 20 5 4 10 7 5 4 2 5 10 6 3 13 17 14 19 4 -15 7 23 9 13 21 8 -6 -22 -25 -0 13 8 16 32 32 11 -13 -9 20 28 9 4 11 10 9 12 9 0 -6 -1 8 9 8 8 8 8 6 7 12 13 8 1 -5 -4 9 26
16 14 15 18 16 11 10 16 14 9 12 12 11 17 20 17 14 11 8 8 21 23 2 4 21 12 3 10 7 1 0 2 13 15 2 2 13 16 16 14 4 5 21 24 11 12 18 18 13 -4 -23 -10 17 14 -1 2 19 27 7 -18 -9 17 22 12 1 -1 10 18 16 12 2 -3 2 7 13 14 8 10 13 9 7 6 7 6 -1 -8 0 18
16 15 16 15 8 3 11 21 17 11 14 11 10 14 6 -4 2 14 15 7 12 23 11 6 17 11 8 14 5 2 4 -4 2 9 2 1 6 11 24 24 16 22 26 24 24 15 7 14 25 20 -1 -3 15 5 -9 5 13 17 29 19 -9 -12 12 25 5 -12 4 18 18 18 11 6 4 2 11 16 5 6 17 17 9 6 9 11 8 2 1 7
15 11 15 17 11 3 6 16 15 7 5 9 14 11 0 1 8 10 12 9 10 21 16 8 13 9 8 14 9 10 14 -1 -7 -2 2 8 -1 -8 12 21 14 19 19 18 28 25 10 10 21 23 4 1 13 -6 -14 21 27 3 13 35 29 8 4 11 2 -8 1 8 16 23 12 6 9 -0 1 11 4 -3 3 10 14 18 20 16 11 12 8 3
16 12 13 16 13 9 7 8 11 10 5 6 13 12 6 11 14 5 4 3 5 16 14 4 9 10 6 11 8 6 15 13 4 -1 4 12 2 -9 5 6 -3 9 10 0 19 34 19 10 18 15 -7 -9 8 1 -10 6 10 -5 -1 16 26 25 17 8 1 6 9 -5 1 26 21 5 7 5 4 7 5 3 1 0 4 7 14 23 19 10 9 15
16 17 16 15 12 12 12 11 11 11 8 8 14 13 5 3 4 3 6 6 3 11 14 7 12 16 11 11 6 -1 7 14 11 8 6 6 4 2 9 3 -1 19 18 -7 5 29 22 12 18 15 1 -8 -3 5 8 8 0 -6 4 14 11 7 13 14 7 13 20 4 -1 20 23 9 3 6 12 9 2 7 10 7 7 -0 -2 19 29 18 17 26
16 19 20 19 16 13 11 12 14 11 9 11 14 14 12 9 7 5 7 9 6 6 8 5 11 20 19 16 10 3 4 6 6 11 11 8 8 5 6 8 6 16 17 0 5 27 27 17 13 16 21 12 3 9 11 7 4 3 11 24 14 -6 -6 2 1 4 11 5 -1 5 12 15 12 8 13 14 6 4 5 4 9 3 -11 -7 3 6 18 33
16 18 20 19 15 13 12 11 12 12 11 10 8 13 15 7 9 14 10 9 10 7 7 5 5 13 19 20 17 10 8 7 4 10 14 12 11 4 2 8 6 7 15 10 10 21 26 21 9 7 17 9 1 16 20 7 7 10 15 24 16 -2 -3 5 4 3 3 -1 -3 1 2 2 7 8 10 13 10 7 6 0 2 9 7 -0 -9 -15 -8 8
Height
5886 5885 5884 5883 5882 5882 5881 5881 5880 5879 5879 5878 5878 5877 5877 5876 5876 5875 5875 5874 5874 5874 5874 5874 5874 5874 5874 5875 5875 5876 5876 5877 5878 5879 5880 5882 5883 5883 5883 5883 5883 5885 5886 5887 5888 5889 5890 5890 5891 5892 5892 5892 5892 5892 5893 5893 5893 5893 5892 5891 5889 5888 5888 5890 5892 5894 5895 5896 5897 5898 5899 5900 5901 5901 5902 5903 5904 5904 5905 5905 5905 5906 5906 5907 5908 5908 5908 5909
5885 5884 5883 5882 5881 5880 5880 5879 5878 5877 5877 5876 5875 5875 5874 5874 5873 5873 5872 5872 5872 5871 5871 5871 5871 5871 5872 5872 5872 5873 5874 5875 5876 5877 5879 5881 5881 5881 5881 5881 5881 5883 5884 5885 5886 5887 5889 5890 5890 5891 5891 5891 5891 5892 5892 5893 5893 5893 5892 5891 5890 5890 5890 5892 5894 5895 5895 5896 5898 5898 5899 5900 5901 5901 5902 5904 5905 5905 5905 5906 5906 5906 5908 5908 5909 5909 5909 5910
5884 5883 5881 5880 5880 5879 5878 5877 5876 5875 5874 5874 5873 5872 5872 5871 5871 5870 5870 5870 5869 5869 5869 5869 5869 5869 5869 5869 5870 5870 5871 5872 5873 5875 5878 5879 5879 5879 5879 5879 5880 5881 5882 5883 5885 5887 5888 5889 5889 5889 5890 5890 5891 5891 5892 5893 5893 5893 5893 5892 5892 5893 5893 5893 5895 5895 5896 5897 5898 5899 5900 5901 5901 5901 5903 5904 5905 5905 5906 5906 5907 5907 5908 5910 5910 5911 5911 5911
5882 5881 5880 5879 5878 5877 5876 5875 5874 5873 5872 5871 5870 5870 5869 5869 5868 5867 5867 5867 5866 5866 5865 5866 5866 5866 5866 5867 5867 5867 5868 5868 5870 5873 5875 5876 5877 5877 5877 5877 5878 5879 5881 5882 5883 5885 5887 5888 5888 5888 5889 5889 5890 5891 5891 5892 5893 5892 5893 5893 5893 5894 5894 5894 5894 5895 5896 5897 5897 5898 5900 5901 5902 5902 5903 5904 5905 5906 5906 5906 5907 5908 5908 5910 5911 5912 5913 5913
5880 5879 5878 5877 5875 5874 5873 5872 5872 5870 5869 5868 5868 5867 5866 5866 5865 5864 5864 5863 5863 5863 5862 5862 5862 5863 5863 5863 5863 5864 5865 5864 5867 5872 5871 5873 5875 5875 5875 5875 5877 5878 5879 5880 5882 5884 5886 5887 5887 5887 5888 5889 5889 5890 5891 5892 5892 5892 5892 5892 5892 5894 5894 5894 5895 5896 5897 5897 5896 5898 5900 5901 5902 5903 5904 5904 5906 5906 5906 5907 5908 5908 5909 5910 5911 5913 5914 5914
5878 5877 5876 5874 5873 5872 5871 5870 5869 5868 5867 5865 5864 5864 5863 5862 5862 5861 5860 5860 5859 5859 5859 5859 5858 5859 5859 5860 5860 5861 5861 5860 5865 5869 5867 5870 5872 5872 5873 5873 5875 5876 5877 5879 5880 5882 5884 5886 5886 5886 5887 5888 5889 5889 5890 5891 5892 5892 5891 5891 5892 5893 5894 5894 5895 5896 5898 5898 5896 5898 5900 5901 5903 5904 5904 5905 5906 5906 5907 5908 5908 5909 5910 5910 5911 5913 5914 5915
5876 5875 5873 5872 5871 5869 5868 5867 5865 5864 5863 5862 5861 5860 5859 5859 5858 5857 5856 5856 5855 5855 5854 5854 5854 5855 5855 5856 5856 5857 5858 5855 5861 5865 5864 5867 5868 5869 5871 5871 5873 5875 5876 5877 5878 5881 5883 5884 5884 5885 5886 5887 5888 5889 5890 5890 5891 5892 5891 5891 5891 5893 5894 5893 5894 5895 5898 5899 5897 5898 5901 5901 5903 5904 5905 5906 5906 5906 5907 5908 5909 5910 5910 5911 5912 5913 5914 5915
5874 5873 5871 5869 5868 5867 5865 5864 5863 5861 5860 5859 5857 5856 5855 5854 5853 5852 5852 5851 5851 5850 5850 5849 5850 5850 5850 5851 5851 5853 5852 5849 5858 5862 5860 5864 5865 5866 5868 5869 5871 5872 5873 5875 5876 5878 5881 5882 5883 5884 5885 5886 5887 5888 5889 5890 5890 5891 5891 5891 5890 5892 5893 5893 5894 5896 5898 5902 5900 5898 5900 5902 5903 5904 5905 5906 5907 5907 5907 5908 5909 5910 5910 5912 5913 5914 5915 5916
5871 5870 5868 5867 5865 5863 5862 5861 5859 5858 5856 5855 5854 5852 5851 5850 5849 5847 5847 5846 5845 5845 5845 5845 5844 5845 5845 5846 5846 5847 5845 5846 5856 5858 5855 5860 5862 5863 5865 5866 5868 5869 5871 5872 5874 5876 5878 5880 5881 5883 5884 5885 5886 5887 5888 5889 5890 5890 5890 5891 5890 5890 5892 5893 5896 5897 5898 5902 5902 5899 5900 5902 5903 5904 5905 5906 5907 5907 5908 5908 5909 5910 5911 5912 5913 5914 5915 5916
5869 5868 5866 5864 5862 5860 5859 5857 5856 5854 5853 5851 5850 5848 5846 5845 5843 5842 5842 5840 5840 5839 5839 5839 5839 5840 5840 5841 5841 5840 5839 5845 5853 5853 5853 5857 5859 5860 5862 5864 5865 5867 5868 5870 5872 5874 5877 5878 5879 5881 5883 5884 5885 5886 5886 5888 5889 5889 5889 5890 5891 5890 5891 5893 5895 5897 5896 5898 5900 5899 5900 5902 5903 5904 5905 5906 5907 5907 5908 5908 5910 5910 5911 5912 5913 5914 5916 5917
5867 5865 5863 5861 5859 5857 5856 5854 5852 5850 5849 5847 5845 5844 5842 5840 5839 5837 5836 5835 5835 5834 5834 5834 5834 5834 5834 5835 5835 5833 5838 5844 5847 5849 5850 5853 5856 5857 5859 5861 5862 5864 5866 5868 5870 5872 5874 5876 5877 5879 5882 5883 5884 5885 5885 5887 5888 5888 5888 5889 5890 5890 5891 5893 5893 5896 5896 5896 5898 5900 5900 5901 5903 5904 5905 5906 5907 5908 5908 5909 5910 5911 5911 5912 5913 5915 5916 5917
5864 5862 5861 5859 5857 5854 5852 5850 5849 5847 5845 5843 5841 5839 5837 5835 5834 5833 5832 5831 5830 5829 5829 5829 5829 5829 5829 5830 5829 5830 5837 5840 5841 5844 5845 5848 5851 5853 5856 5858 5859 5861 5863 5865 5867 5870 5872 5873 5875 5878 5880 5882 5883 5884 5884 5885 5886 5886 5887 5888 5889 5890 5892 5892 5892 5894 5896 5897 5898 5900 5900 5901 5902 5904 5905 5906 5907 5908 5909 5909 5910 5911 5912 5913 5913 5915 5916 5918
5862 5860 5858 5856 5854 5851 5849 5847 5845 5843 5841 5839 5837 5835 5833 5831 5829 5828 5827 5826 5826 5825 5825 5825 5825 5825 5825 5826 5826 5829 5833 5832 5834 5838 5840 5843 5846 5849 5852 5855 5856 5858 5860 5862 5864 5867 5869 5871 5874 5877 5879 5880 5882 5883 5883 5884 5886 5886 5887 5888 5888 5890 5891 5892 5892 5892 5894 5896 5898 5898 5900 5901 5902 5903 5904 5905 5907 5908 5909 5909 5910 5911 5912 5913 5914 5915 5917 5918
5859 5857 5855 5853 5851 5848 5846 5844 5842 5840 5837 5835 5833 5831 5828 5827 5826 5824 5823 5822 5822 5822 5821 5821 5821 5822 5822 5822 5823 5825 5826 5826 5830 5833 5836 5839 5842 5845 5848 5851 5853 5855 5857 5860 5862 5864 5867 5869 5873 5876 5878 5879 5880 5882 5882 5883 5885 5886 5887 5887 5888 5889 5890 5892 5892 5892 5893 5895 5897 5897 5898 5900 5901 5903 5904 5905 5907 5908 5909 5909 5910 5911 5912 5913 5914 5915 5916 5918
5857 5855 5852 5850 5847 5845 5843 5841 5838 5836 5834 5831 5829 5827 5825 5823 5822 5821 5820 5819 5818 5818 5818 5817 5818 5818 5818 5819 5821 5821 5821 5823 5826 5829 5832 5835 5838 5841 5844 5847 5850 5852 5855 5857 5860 5863 5865 5868 5872 5875 5877 5878 5880 5881 5881 5882 5884 5885 5886 5887 5888 5888 5888 5890 5891 5891 5892 5893 5895 5897 5898 5900 5901 5902 5904 5905 5906 5908 5909 5909 5910 5911 5912 5913 5913 5915 5916 5918
5855 5852 5849 5847 5844 5842 5840 5837 5835 5832 5830 5828 5825 5823 5822 5820 5819 5818 5816 5816 5815 5814 5814 5814 5814 5814 5815 5816 5817 5817 5818 5820 5823 5825 5828 5831 5834 5838 5841 5844 5846 5849 5852 5854 5857 5860 5863 5867 5871 5874 5875 5876 5878 5880 5880 5882 5882 5883 5885 5886 5887 5888 5888 5889 5889 5890 5892 5893 5894 5896 5898 5900 5901 5902 5903 5905 5906 5907 5909 5910 5910 5911 5912 5913 5913 5915 5916 5918
5852 5849 5847 5844 5841 5839 5837 5834 5831 5829 5826 5824 5822 5820 5819 5817 5816 5814 5814 5813 5811 5811 5811 5810 5810 5811 5811 5812 5814 5815 5816 5818 5821 5822 5825 5827 5830 5834 5838 5841 5843 5845 5849 5851 5855 5858 5862 5866 5869 5872 5874 5875 5877 5878 5880 5882 5882 5882 5884 5885 5887 5888 5887 5887 5888 5890 5891 5891 5893 5896 5898 5900 5901 5901 5903 5904 5906 5907 5908 5909 5910 5911 5912 5913 5914 5915 5916 5917
5850 5847 5844 5841 5839 5836 5833 5831 5828 5826 5823 5821 5819 5818 5816 5815 5813 5812 5811 5810 5808 5808 5808 5807 5808 5807 5808 5809 5811 5812 5814 5816 5818 5819 5821 5824 5827 5831 5835 5837 5840 5843 5846 5849 5853 5856 5859 5862 5865 5869 5871 5873 5876 5878 5880 5882 5882 5881 5883 5884 5886 5887 5887 5887 5888 5888 5889 5890 5892 5895 5897 5898 5900 5901 5902 5904 5905 5907 5908 5910 5911 5912 5913 5913 5914 5915 5916 5917
5847 5844 5841 5839 5836 5833 5830 5828 5825 5823 5821 5819 5817 5815 5814 5812 5810 5809 5808 5806 5805 5805 5804 5804 5805 5805 5805 5806 5807 5809 5812 5813 5814 5816 5818 5820 5824 5828 5832 5834 5837 5841 5843 5847 5850 5853 5855 5858 5861 5865 5868 5872 5875 5877 5879 5880 5880 5880 5882 5884 5885 5886 5886 5886 5886 5886 5887 5889 5891 5894 5896 5897 5898 5900 5902 5904 5905 5906 5908 5909 5910 5912 5913 5914 5914 5915 5916 5917
5845 5842 5839 5836 5833 5830 5828 5825 5823 5820 5819 5817 5815 5813 5811 5809 5808 5806 5805 5803 5802 5801 5801 5801 5802 5802 5802 5803 5805 5807 5809 5810 5811 5813 5816 5818 5822 5825 5828 5831 5835 5838 5841 5844 5848 5850 5852 5856 5859 5863 5868 5871 5873 5875 5876 5878 5879 5879 5881 5882 5883 5885 5885 5885 5886 5885 5886 5888 5890 5892 5894 5895 5898 5900 5902 5903 5905 5906 5907 5909 5910 5912 5913 5914 5915 5915 5916 5917
5842 5839 5836 5833 5830 5828 5825 5822 5820 5818 5817 5815 5813 5811 5809 5807 5805 5803 5801 5800 5799 5798 5797 5798 5799 5800 5800 5801 5804 5805 5806 5808 5809 5811 5813 5816 5819 5822 5825 5829 5832 5835 5839 5842 5845 5847 5850 5854 5858 5863 5866 5868 5871 5873 5874 5876 5877 5878 5879 5880 5881 5883 5883 5884 5885 5885 5885 5887 5889 5891 5893 5895 5897 5899 5901 5902 5904 5906 5908 5909 5910 5911 5912 5914 5915 5915 5916 5917
5840 5837 5834 5831 5828 5825 5823 5820 5818 5817 5815 5813 5811 5808 5806 5804 5802 5800 5798 5797 5796 5796 5795 5796 5797 5798 5799 5800 5802 5803 5804 5806 5807 5809 5811 5814 5816 5819 5822 5826 5830 5833 5837 5840 5842 5845 5849 5853 5857 5861 5864 5866 5869 5871 5873 5875 5876 5877 5878 5878 5880 5882 5882 5883 5883 5883 5884 5886 5888 5890 5891 5894 5896 5898 5900 5901 5903 5905 5906 5908 5909 5911 5912 5914 5915 5916 5916 5917
5837 5834 5831 5829 5826 5823 5821 5818 5817 5815 5813 5811 5809 5807 5804 5802 5800 5798 5796 5794 5794 5794 5793 5794 5795 5796 5797 5798 5800 5802 5803 5804 5806 5807 5809 5811 5813 5816 5820 5824 5827 5831 5835 5837 5840 5843 5848 5853 5857 5859 5861 5864 5867 5870 5872 5873 5873 5876 5877 5877 5878 5880 5881 5882 5882 5882 5884 5885 5886 5888 5890 5892 5894 5896 5898 5900 5902 5903 5904 5906 5908 5910 5911 5913 5914 5916 5917 5917
5835 5832 5829 5827 5824 5821 5819 5817 5815 5813 5812 5809 5807 5805 5803 5801 5798 5797 5795 5793 5793 5793 5793 5794 5794 5795 5796 5797 5799 5800 5801 5802 5804 5805 5807 5809 5811 5814 5818 5822 5825 5829 5832 5835 5838 5842 5847 5853 5856 5857 5859 5861 5865 5868 5870 5871 5871 5874 5876 5876 5877 5879 5881 5881 5881 5882 5883 5884 5885 5887 5889 5891 5892 5894 5897 5899 5900 5902 5903 5904 5906 5909 5910 5912 5913 5915 5916 5917
5833 5830 5827 5824 5822 5820 5817 5816 5814 5812 5810 5808 5806 5804 5802 5799 5797 5796 5794 5793 5793 5793 5794 5794 5794 5794 5795 5796 5797 5798 5800 5801 5802 5804 5806 5807 5809 5813 5816 5819 5824 5828 5830 5833 5836 5840 5846 5851 5853 5856 5858 5860 5862 5864 5867 5870 5871 5873 5874 5875 5876 5877 5879 5881 5881 5881 5882 5883 5884 5886 5887 5888 5890 5892 5894 5897 5898 5899 5901 5903 5905 5908 5910 5911 5913 5914 5916 5917
5831 5828 5825 5823 5820 5818 5816 5815 5813 5811 5809 5807 5805 5803 5801 5799 5797 5796 5795 5794 5793 5794 5795 5795 5794 5794 5795 5796 5797 5798 5799 5800 5801 5803 5804 5806 5808 5812 5815 5819 5823 5826 5829 5832 5835 5839 5845 5849 5852 5855 5856 5859 5861 5862 5866 5869 5871 5872 5872 5873 5875 5876 5877 5879 5881 5881 5881 5882 5883 5884 5884 5885 5887 5890 5892 5896 5897 5898 5901 5902 5904 5907 5909 5911 5912 5914 5916 5917
5829 5826 5824 5821 5819 5817 5815 5813 5812 5810 5808 5806 5805 5803 5801 5799 5798 5797 5796 5796 5796 5795 5795 5795 5795 5794 5795 5796 5796 5797 5798 5798 5799 5801 5803 5805 5808 5811 5814 5818 5822 5825 5828 5830 5834 5840 5845 5848 5849 5851 5853 5857 5859 5861 5865 5869 5872 5873 5871 5872 5874 5875 5875 5877 5879 5880 5880 5882 5882 5882 5882 5882 5885 5889 5891 5894 5895 5897 5900 5902 5903 5906 5908 5910 5912 5913 5915 5916
5827 5825 5822 5820 5818 5816 5814 5812 5811 5809 5807 5806 5804 5803 5801 5800 5799 5798 5797 5797 5798 5797 5795 5795 5795 5795 5795 5795 5796 5796 5797 5798 5799 5800 5802 5805 5808 5811 5814 5817 5821 5824 5826 5829 5835 5841 5844 5845 5846 5848 5852 5855 5857 5860 5864 5870 5874 5872 5869 5870 5873 5873 5874 5876 5877 5878 5879 5881 5881 5882 5882 5882 5884 5888 5890 5892 5894 5896 5899 5901 5903 5905 5908 5909 5911 5913 5914 5916
5826 5823 5821 5819 5817 5815 5813 5812 5810 5809 5807 5806 5805 5803 5802 5801 5800 5799 5798 5798 5798 5797 5796 5796 5795 5795 5795 5795 5796 5797 5798 5799 5799 5800 5802 5804 5807 5810 5813 5816 5818 5822 5825 5829 5835 5840 5843 5844 5843 5846 5851 5853 5856 5859 5863 5870 5872 5869 5867 5869 5871 5872 5873 5875 5876 5878 5879 5880 5881 5881 5882 5883 5885 5887 5888 5889 5892 5895 5898 5901 5903 5905 5907 5908 5910 5912 5913 5915
5824 5822 5820 5818 5816 5814 5813 5811 5810 5809 5807 5806 5805 5804 5803 5802 5801 5800 5800 5800 5799 5797 5797 5796 5795 5795 5795 5796 5797 5797 5798 5799 5800 5801 5802 5804 5807 5810 5813 5815 5818 5822 5826 5830 5835 5838 5842 5844 5842 5844 5848 5851 5856 5858 5861 5867 5869 5866 5866 5867 5869 5871 5873 5874 5875 5877 5878 5879 5881 5881 5882 5882 5884 5885 5886 5888 5892 5895 5897 5900 5902 5904 5906 5908 5909 5911 5912 5914
5823 5821 5819 5817 5815 5814 5812 5811 5810 5809 5807 5806 5805 5804 5803 5803 5802 5801 5801 5801 5800 5799 5797 5797 5797 5796 5796 5796 5797 5797 5798 5799 5801 5802 5803 5805 5807 5810 5813 5817 5820 5823 5825 5829 5833 5835 5838 5842 5842 5842 5845 5849 5854 5857 5862 5866 5867 5868 5867 5865 5868 5872 5873 5875 5875 5877 5878 5879 5880 5881 5881 5882 5883 5884 5884 5887 5891 5892 5895 5899 5901 5903 5905 5907 5908 5910 5911 5913
5822 5820 5818 5816 5814 5813 5812 5810 5809 5808 5807 5806 5805 5804 5804 5803 5802 5802 5803 5803 5803 5802 5800 5798 5798 5797 5797 5798 5798 5799 5799 5800 5802 5803 5804 5806 5808 5810 5813 5817 5821 5824 5826 5831 5833 5833 5837 5841 5842 5841 5843 5848 5850 5854 5861 5864 5864 5866 5865 5864 5868 5871 5873 5874 5875 5876 5877 5878 5880 5880 5881 5882 5882 5883 5883 5884 5887 5890 5893 5896 5899 5902 5904 5906 5907 5909 5911 5912
5820 5818 5817 5815 5813 5812 5811 5810 5809 5808 5807 5807 5805 5804 5804 5803 5803 5803 5805 5806 5805 5803 5802 5800 5799 5799 5799 5799 5800 5800 5801 5801 5803 5804 5805 5807 5809 5811 5814 5817 5820 5824 5828 5831 5833 5835 5839 5840 5839 5839 5843 5847 5848 5851 5859 5862 5861 5863 5863 5865 5868 5870 5872 5874 5874 5875 5876 5877 5878 5879 5880 5881 5881 5881 5881 5881 5884 5887 5890 5893 5897 5900 5903 5905 5906 5908 5910 5911
5819 5817 5816 5814 5813 5812 5811 5810 5809 5808 5807 5806 5805 5805 5804 5803 5804 5804 5805 5807 5805 5803 5803 5803 5802 5801 5800 5801 5801 5801 5802 5803 5804 5804 5806 5807 5810 5812 5815 5817 5820 5823 5827 5830 5832 5837 5840 5840 5840 5841 5843 5845 5848 5851 5856 5860 5861 5861 5863 5866 5868 5869 5872 5872 5872 5873 5875 5876 5877 5878 5879 5880 5880 5880 5879 5878 5881 5885 5888 5892 5895 5898 5900 5902 5904 5906 5908 5910
5818 5816 5815 5813 5812 5811 5810 5809 5808 5808 5807 5806 5805 5805 5804 5804 5805 5806 5806 5805 5804 5805 5806 5804 5803 5804 5802 5802 5803 5802 5802 5804 5804 5805 5806 5807 5810 5813 5815 5817 5820 5823 5828 5830 5832 5836 5840 5841 5842 5843 5843 5844 5847 5851 5853 5857 5861 5861 5863 5865 5867 5869 5870 5870 5871 5872 5874 5876 5876 5877 5878 5879 5880 5880 5880 5880 5882 5885 5888 5891 5894 5896 5898 5900 5902 5905 5907 5909
5817 5815 5814 5812 5811 5810 5809 5809 5808 5807 5807 5806 5805 5804 5805 5805 5806 5807 5806 5804 5803 5805 5806 5804 5803 5805 5805 5804 5804 5803 5803 5804 5804 5805 5806 5808 5810 5812 5815 5819 5821 5823 5827 5828 5828 5833 5838 5843 5844 5842 5842 5842 5845 5850 5851 5855 5859 5860 5863 5866 5867 5868 5869 5869 5871 5873 5874 5875 5876 5876 5878 5879 5880 5880 5881 5882 5883 5885 5888 5889 5891 5894 5896 5898 5901 5903 5905 5907
5816 5814 5812 5811 5810 5809 5809 5808 5807 5807 5806 5806 5806 5804 5805 5806 5805 5805 5804 5802 5803 5804 5804 5804 5804 5805 5806 5805 5805 5804 5804 5804 5804 5805 5807 5808 5809 5810 5813 5817 5819 5821 5824 5825 5826 5830 5835 5841 5843 5841 5840 5841 5843 5848 5850 5853 5857 5860 5863 5866 5867 5867 5868 5869 5872 5873 5874 5875 5875 5876 5877 5878 5879 5880 5880 5882 5884 5886 5888 5888 5888 5889 5892 5895 5899 5902 5904 5906
5815 5813 5811 5810 5809 5808 5808 5807 5807 5807 5806 5806 5806 5805 5805 5805 5804 5803 5802 5802 5804 5804 5804 5805 5804 5804 5805 5805 5805 5805 5804 5804 5805 5805 5806 5807 5808 5810 5811 5813 5816 5818 5821 5824 5827 5830 5833 5839 5842 5840 5840 5841 5841 5845 5848 5851 5855 5857 5860 5863 5865 5866 5867 5868 5871 5873 5874 5874 5874 5875 5876 5877 5878 5879 5879 5880 5882 5885 5886 5886 5885 5885 5887 5892 5897 5900 5902 5904
5814 5812 5811 5809 5808 5807 5807 5807 5806 5806 5806 5805 5805 5805 5805 5805 5804 5803 5803 5803 5804 5804 5803 5804 5804 5805 5805 5804 5805 5805 5804 5804 5805 5805 5806 5807 5808 5810 5810 5812 5815 5816 5819 5822 5826 5829 5832 5837 5839 5838 5839 5841 5840 5842 5847 5850 5852 5855 5858 5861 5863 5864 5866 5867 5869 5872 5873 5873 5874 5874 5875 5876 5877 5877 5878 5878 5880 5882 5884 5885 5883 5883 5885 5890 5894 5898 5900 5902
5813 5811 5810 5808 5808 5807 5806 5806 5805 5805 5805 5805 5804 5805 5805 5805 5804 5803 5803 5803 5802 5802 5802 5802 5803 5804 5805 5805 5806 5805 5804 5804 5805 5805 5806 5807 5809 5810 5810 5811 5814 5816 5819 5822 5826 5828 5831 5835 5838 5838 5839 5841 5840 5841 5846 5850 5852 5854 5857 5860 5862 5864 5865 5866 5868 5871 5873 5874 5874 5873 5874 5875 5875 5876 5877 5878 5879 5880 5882 5884 5883 5883 5886 5889 5893 5896 5898 5900
5811 5809 5808 5807 5807 5806 5806 5805 5805 5805 5804 5804 5804 5806 5806 5805 5805 5804 5803 5803 5802 5802 5802 5802 5802 5802 5803 5804 5805 5805 5805 5804 5804 5806 5807 5807 5808 5809 5809 5810 5812 5815 5818 5822 5826 5828 5829 5833 5836 5837 5839 5841 5840 5841 5845 5849 5851 5854 5856 5859 5862 5864 5864 5865 5868 5871 5873 5874 5874 5872 5873 5874 5874 5875 5876 5878 5878 5879 5881 5884 5884 5886 5888 5890 5893 5895 5897 5899
5810 5808 5807 5806 5806 5806 5805 5804 5804 5804 5804 5803 5803 5805 5805 5805 5806 5805 5803 5802 5802 5802 5801 5801 5801 5801 5801 5802 5802 5804 5806 5805 5804 5806 5806 5806 5807 5807 5808 5809 5810 5813 5816 5821 5826 5826 5826 5829 5832 5834 5837 5840 5841 5842 5844 5847 5851 5855 5857 5858 5861 5863 5863 5864 5867 5869 5871 5873 5873 5872 5872 5873 5873 5873 5875 5876 5877 5879 5881 5883 5885 5886 5888 5889 5891 5893 5894 5896
5809 5807 5806 5805 5804 5804 5804 5803 5803 5803 5804 5804 5803 5803 5803 5804 5805 5804 5802 5801 5801 5801 5800 5799 5800 5800 5801 5801 5801 5803 5805 5805 5804 5805 5805 5806 5806 5805 5806 5808 5810 5813 5816 5818 5820 5822 5825 5829 5831 5833 5835 5839 5842 5843 5843 5846 5849 5852 5855 5857 5859 5861 5863 5864 5866 5868 5869 5871 5872 5871 5870 5872 5872 5872 5874 5875 5877 5879 5881 5882 5884 5885 5887 5888 5889 5891 5893 5894
5808 5806 5805 5804 5803 5803 5803 5802 5802 5802 5802 5802 5802 5803 5802 5802 5802 5802 5801 5800 5800 5799 5799 5799 5799 5800 5800 5801 5801 5802 5803 5804 5805 5805 5805 5806 5806 5805 5806 5808 5810 5812 5814 5814 5816 5820 5824 5827 5831 5833 5836 5840 5844 5843 5843 5845 5847 5851 5855 5858 5859 5860 5863 5865 5866 5866 5867 5869 5870 5869 5868 5871 5871 5871 5873 5875 5876 5878 5879 5881 5882 5884 5885 5887 5889 5890 5891 5892
5807 5805 5803 5803 5802 5802 5802 5801 5801 5801 5801 5801 5801 5802 5802 5801 5801 5801 5801 5800 5799 5798 5798 5798 5798 5799 5800 5800 5800 5801 5802 5803 5804 5804 5805 5806 5805 5804 5805 5807 5808 5809 5811 5812 5815 5819 5821 5823 5827 5831 5834 5838 5841 5842 5844 5846 5847 5850 5854 5856 5858 5859 5862 5865 5866 5867 5867 5868 5869 5867 5867 5870 5871 5871 5872 5873 5874 5876 5877 5878 5880 5883 5884 5886 5888 5890 5890 5891
5806 5804 5802 5802 5801 5801 5800 5800 5800 5800 5800 5800 5800 5801 5802 5802 5800 5800 5800 5799 5798 5798 5798 5798 5798 5798 5799 5799 5800 5801 5801 5802 5802 5803 5804 5805 5805 5804 5805 5806 5807 5808 5810 5812 5814 5817 5819 5821 5824 5828 5830 5833 5836 5839 5842 5844 5846 5850 5851 5852 5855 5858 5860 5862 5865 5868 5868 5867 5866 5866 5866 5868 5869 5870 5871 5873 5874 5875 5876 5877 5878 5880 5882 5884 5886 5888 5889 5890
5804 5803 5802 5801 5800 5799 5799 5799 5799 5800 5800 5800 5799 5800 5802 5802 5800 5799 5799 5798 5797 5797 5797 5797 5797 5797 5798 5798 5799 5799 5800 5801 5801 5801 5802 5803 5804 5804 5805 5805 5806 5808 5809 5812 5814 5816 5817 5820 5824 5827 5830 5832 5834 5836 5839 5842 5845 5849 5852 5852 5853 5856 5859 5860 5864 5867 5867 5865 5864 5864 5865 5866 5866 5868 5870 5872 5874 5875 5876 5877 5878 5879 5880 5882 5884 5887 5888 5888
5802 5801 5800 5800 5799 5799 5799 5799 5799 5800 5799 5799 5798 5799 5800 5801 5800 5799 5799 5798 5797 5797 5796 5796 5797 5797 5797 5797 5798 5798 5798 5799 5800 5800 5801 5801 5802 5803 5805 5806 5807 5807 5809 5812 5814 5814 5816 5819 5822 5825 5829 5833 5835 5836 5838 5841 5845 5848 5852 5854 5854 5855 5857 5860 5865 5866 5865 5864 5864 5863 5863 5863 5865 5867 5869 5871 5873 5875 5876 5877 5877 5878 5879 5880 5882 5885 5885 5885
5801 5800 5799 5798 5797 5797 5797 5798 5798 5798 5797 5797 5797 5798 5799 5799 5799 5798 5798 5798 5797 5797 5796 5796 5796 5796 5796 5797 5797 5797 5797 5798 5799 5799 5800 5801 5801 5802 5803 5804 5805 5805 5807 5811 5813 5812 5814 5817 5819 5822 5825 5830 5834 5836 5838 5840 5844 5848 5851 5852 5853 5856 5858 5860 5862 5863 5863 5864 5864 5862 5860 5861 5864 5867 5867 5868 5871 5873 5875 5876 5876 5878 5879 5879 5880 5882 5883 5884
5799 5798 5797 5796 5796 5795 5795 5796 5796 5796 5796 5796 5796 5796 5797 5798 5797 5797 5797 5797 5797 5796 5796 5796 5796 5795 5796 5796 5797 5797 5797 5798 5798 5798 5799 5800 5801 5801 5802 5802 5803 5803 5805 5808 5809 5809 5812 5816 5818 5820 5823 5826 5830 5836 5838 5839 5843 5846 5846 5846 5848 5852 5855 5855 5856 5857 5859 5863 5865 5861 5858 5859 5862 5865 5867 5867 5869 5870 5872 5873 5874 5876 5878 5879 5880 5881 5882 5882
5797 5796 5795 5795 5794 5794 5794 5794 5795 5795 5795 5795 5795 5795 5796 5796 5796 5796 5796 5797 5796 5796 5796 5796 5795 5795 5795 5795 5796 5796 5797 5797 5797 5798 5798 5799 5800 5801 5801 5801 5802 5803 5804 5805 5806 5807 5810 5813 5816 5820 5823 5825 5829 5835 5837 5839 5842 5842 5840 5841 5843 5845 5845 5846 5849 5851 5852 5855 5858 5856 5855 5857 5860 5863 5865 5866 5867 5868 5869 5870 5872 5874 5875 5877 5879 5882 5883 5883
5795 5794 5794 5793 5793 5793 5793 5793 5793 5793 5793 5794 5794 5794 5794 5795 5794 5795 5795 5796 5796 5796 5795 5795 5795 5794 5794 5794 5795 5795 5795 5796 5796 5797 5797 5798 5799 5800 5800 5801 5801 5802 5802 5803 5804 5806 5808 5810 5813 5817 5820 5823 5827 5832 5836 5838 5840 5837 5834 5837 5841 5841 5840 5842 5845 5847 5848 5850 5851 5852 5853 5856 5858 5861 5862 5864 5866 5867 5868 5869 5870 5871 5873 5873 5875 5879 5881 5881